Total_Precipitation_Accumulation
1.38 1.55 1.86 2.30 2.74 3.25 3.37 3.40 3.58 3.82 4.02 4.20 4.27 4.15 3.79 3.58 3.44 3.20 3.02 2.94 2.85 2.90 3.05 2.78 2.46 2.35 2.28 2.26 2.23 2.18 2.05 1.82 1.76 1.74 1.45 1.13 0.96 0.88 0.79 0.74 0.73 0.66 0.63
1.36 1.51 1.75 2.07 2.31 2.80 3.16 3.21 3.33 3.48 3.60 3.70 3.98 4.16 4.04 3.75 3.64 3.56 3.31 3.08 2.98 2.96 3.04 3.12 2.92 2.59 2.46 2.44 2.46 2.41 2.24 2.12 2.06 1.99 1.87 1.64 1.42 1.09 0.89 0.82 0.77 0.73 0.73
1.31 1.46 1.62 1.96 2.14 2.50 2.93 3.10 3.23 3.39 3.41 3.62 4.12 4.46 4.55 4.22 3.90 3.71 3.60 3.40 3.16 3.08 3.03 3.03 3.07 2.93 2.71 2.58 2.58 2.65 2.65 2.49 2.36 2.22 2.25 1.97 1.62 1.30 1.07 0.96 0.91 0.89 0.86
1.20 1.32 1.42 1.77 2.03 2.23 2.57 2.81 3.11 3.40 3.55 3.67 3.92 4.06 4.00 3.86 3.53 3.43 3.44 3.49 3.44 3.20 3.10 3.11 3.12 3.10 2.97 2.74 2.68 2.75 2.81 2.85 2.76 2.59 2.37 2.09 1.73 1.58 1.33 1.10 1.06 1.11 1.10
1.15 1.34 1.43 1.57 1.74 2.05 2.34 2.53 2.73 3.03 3.34 3.51 3.69 3.89 3.83 3.66 3.60 3.58 3.54 3.49 3.52 3.41 3.25 3.15 3.16 3.16 3.13 3.01 2.90 2.85 2.87 2.89 2.87 2.82 2.63 2.41 2.04 1.73 1.60 1.36 1.21 1.25 1.21
1.15 1.28 1.36 1.48 1.57 1.80 2.15 2.33 2.51 2.71 3.01 3.25 3.44 3.68 3.64 3.47 3.32 3.37 3.45 3.37 3.35 3.28 3.21 3.19 3.13 3.08 3.05 2.96 2.90 2.88 2.84 2.85 2.79 2.70 2.58 2.50 2.31 2.01 1.87 1.66 1.41 1.41 1.38
1.07 1.19 1.29 1.47 1.57 1.71 1.86 1.99 2.10 2.26 2.54 2.83 3.01 3.23 3.35 3.36 3.20 3.02 3.13 3.18 3.09 2.99 2.93 2.99 3.03 3.02 2.95 2.93 2.88 2.82 2.70 2.73 2.76 2.66 2.51 2.36 2.13 1.97 1.99 1.96 1.74 1.54 1.40
1.04 1.09 1.17 1.35 1.51 1.66 1.67 1.70 1.78 1.93 2.06 2.23 2.43 2.62 2.72 2.94 3.01 2.90 2.79 2.85 2.84 2.79 2.78 2.82 2.89 2.97 2.99 2.92 2.91 2.84 2.68 2.59 2.57 2.55 2.48 2.40 2.21 2.02 1.97 1.99 2.05 1.98 1.69
0.95 1.02 1.15 1.26 1.37 1.49 1.55 1.57 1.64 1.72 1.77 1.91 2.06 2.30 2.34 2.38 2.51 2.59 2.61 2.61 2.56 2.56 2.64 2.77 2.78 2.76 2.81 2.79 2.78 2.75 2.58 2.45 2.38 2.32 2.34 2.33 2.22 2.13 2.03 2.01 2.13 2.39 2.33
0.94 1.05 1.19 1.29 1.34 1.45 1.51 1.47 1.52 1.60 1.66 1.72 1.85 2.01 2.12 2.20 2.24 2.27 2.29 2.35 2.35 2.29 2.34 2.46 2.57 2.59 2.59 2.64 2.70 2.60 2.44 2.35 2.21 2.09 2.12 2.15 2.13 2.17 2.17 2.16 2.18 2.31 2.49
0.94 1.07 1.20 1.33 1.37 1.39 1.45 1.47 1.42 1.46 1.53 1.59 1.63 1.74 1.82 1.91 2.03 2.05 2.03 2.05 2.10 2.08 2.06 2.16 2.25 2.25 2.25 2.30 2.39 2.39 2.33 2.30 2.23 2.12 2.00 1.92 1.95 2.09 2.16 2.24 2.28 2.30 2.39
0.90 1.03 1.11 1.14 1.22 1.31 1.42 1.49 1.42 1.42 1.40 1.49 1.58 1.60 1.65 1.70 1.81 1.84 1.87 1.85 1.88 1.93 1.92 1.96 2.06 2.09 2.06 2.06 2.10 2.09 2.09 2.12 2.12 2.11 2.07 1.96 1.94 2.08 2.15 2.26 2.30 2.25 2.18
0.87 0.92 1.01 1.03 1.05 1.16 1.32 1.47 1.44 1.43 1.37 1.35 1.48 1.59 1.58 1.54 1.62 1.68 1.65 1.67 1.70 1.80 1.85 1.83 1.88 1.92 1.96 2.00 2.02 2.00 2.00 1.96 1.95 2.02 2.10 2.03 2.05 2.10 2.09 2.10 2.09 2.03 1.94
0.87 0.90 0.94 0.95 0.96 1.04 1.10 1.26 1.30 1.31 1.34 1.38 1.39 1.45 1.50 1.48 1.46 1.53 1.52 1.52 1.56 1.64 1.73 1.73 1.71 1.76 1.83 1.90 1.94 2.01 2.07 2.06 2.02 2.01 2.05 2.05 2.05 2.01 2.00 2.00 1.95 1.91 1.90
0.78 0.84 0.90 0.89 0.88 0.94 0.97 1.05 1.17 1.24 1.31 1.37 1.39 1.38 1.42 1.44 1.46 1.47 1.49 1.48 1.53 1.55 1.60 1.65 1.65 1.68 1.79 1.90 1.95 1.96 2.02 2.12 2.12 2.07 2.01 1.96 2.05 2.04 1.98 1.96 1.94 1.98 2.08
0.76 0.80 0.83 0.84 0.84 0.90 0.96 0.99 1.05 1.21 1.24 1.30 1.37 1.34 1.30 1.33 1.45 1.55 1.56 1.56 1.55 1.57 1.60 1.67 1.72 1.75 1.81 2.15 2.23 2.13 2.07 2.08 2.05 1.99 1.89 1.84 1.94 1.91 1.95 1.99 2.00 2.10 2.24
0.70 0.74 0.79 0.82 0.87 0.91 0.94 0.97 1.01 1.15 1.21 1.27 1.33 1.34 1.33 1.36 1.41 1.51 1.64 1.70 1.68 1.68 1.74 1.82 1.86 1.90 2.00 2.16 2.06 2.08 1.95 1.90 1.85 1.77 1.68 1.62 1.58 1.65 1.51 1.66 1.82 1.86 2.00
0.65 0.68 0.72 0.77 0.80 0.83 0.88 0.94 0.96 1.03 1.09 1.16 1.27 1.29 1.31 1.43 1.52 1.57 1.63 1.72 1.76 1.81 1.89 1.97 1.98 1.93 1.97 1.99 1.80 1.81 1.69 1.61 1.53 1.48 1.45 1.43 1.39 1.40 1.47 1.53 1.64 1.56 1.49
0.67 0.70 0.72 0.76 0.76 0.76 0.83 0.92 0.97 1.02 1.06 1.11 1.23 1.31 1.32 1.39 1.49 1.64 1.67 1.71 1.77 1.83 1.84 1.84 1.79 1.68 1.64 1.68 1.55 1.50 1.39 1.42 1.36 1.26 1.24 1.28 1.24 1.45 1.68 1.71 1.69 1.49 1.37
0.57 0.66 0.68 0.71 0.73 0.76 0.82 0.93 1.00 1.09 1.20 1.25 1.32 1.41 1.46 1.50 1.49 1.55 1.62 1.62 1.58 1.55 1.46 1.38 1.33 1.25 1.18 1.28 1.35 1.39 1.27 1.25 1.21 1.18 1.16 1.32 1.33 1.55 1.76 1.71 1.72 1.60 1.36
0.52 0.61 0.67 0.74 0.78 0.83 0.90 1.03 1.11 1.24 1.35 1.41 1.42 1.48 1.49 1.50 1.48 1.39 1.32 1.29 1.23 1.17 1.15 1.09 1.02 0.99 1.01 1.05 1.12 1.31 1.37 1.33 1.24 1.18 1.13 1.15 1.39 1.56 1.69 1.70 1.59 1.64 1.64
0.52 0.62 0.70 0.75 0.80 0.88 0.95 1.02 1.13 1.21 1.23 1.32 1.32 1.32 1.22 1.11 1.09 1.10 1.08 1.10 1.10 1.06 1.03 1.04 1.02 0.96 0.97 1.03 1.08 1.22 1.37 1.47 1.42 1.24 1.07 1.10 1.38 1.48 1.58 1.55 1.58 1.76 1.75
0.47 0.54 0.63 0.65 0.66 0.73 0.83 0.94 0.96 0.95 0.96 0.99 1.01 1.03 0.98 0.91 0.91 0.95 1.01 1.04 1.08 1.09 1.04 1.02 1.03 1.01 0.94 1.00 1.14 1.21 1.31 1.39 1.37 1.24 1.24 1.26 1.31 1.30 1.33 1.45 1.52 1.52 1.47
0.46 0.52 0.54 0.57 0.59 0.62 0.72 0.84 0.85 0.83 0.85 0.88 0.89 0.93 0.96 0.93 0.93 0.94 0.98 1.06 1.10 1.12 1.10 1.09 1.07 1.01 0.97 0.98 1.04 1.17 1.28 1.35 1.37 1.39 1.39 1.35 1.30 1.26 1.25 1.31 1.30 1.28 1.34
0.51 0.55 0.60 0.62 0.64 0.64 0.67 0.73 0.79 0.83 0.88 0.86 0.87 0.91 0.95 0.98 0.98 1.00 1.06 1.12 1.14 1.24 1.36 1.31 1.23 1.22 1.17 1.09 1.29 1.41 1.44 1.47 1.54 1.61 1.53 1.41 1.32 1.32 1.29 1.25 1.20 1.24 1.35
0.53 0.55 0.60 0.66 0.69 0.69 0.72 0.75 0.81 0.88 0.96 0.97 0.96 0.99 1.04 1.03 1.04 1.05 1.10 1.20 1.22 1.28 1.34 1.34 1.33 1.27 1.21 1.25 1.37 1.43 1.48 1.58 1.69 1.78 1.61 1.37 1.23 1.19 1.17 1.18 1.18 1.19 1.25